sat.trackr.live / text

‹ back to catalog

SES-10

NORAD 42432 · 2017-017A

PAYLOAD ACTIVE UNKNOWN

§ Identity

Operator
Country
SES
Launch date
2017-03-30
Launch site
AFETR
Launch vehicle
Mass (kg)
RCS (m²)
6.49

Purposes: comms

External: N2YO · Heavens-Above · Gunter

§ Orbital elements

Epoch: 2026-05-24T23:22:38.556768Z

Period
1,436.10 min
Inclination
0.0268°
Eccentricity
0.0002787
Mean motion
1.00271889 rev/d
Perigee alt
35,774.8 km
Apogee alt
35,798.3 km
Semi-major
42,164.7 km
B*
0.0000e+0
RAAN
39.9707°
Arg perigee
31.0336°
Mean anomaly
95.3336°
Rev number
3,352

§ Raw data

SES-101 42432U 17017A   26144.97405737 -.00000276  00000+0  00000+0 0  99942 42432   0.0268  39.9707 0002787  31.0336  95.3336  1.00271889 33526

JSON: /api/v1/satellites/42432 · /tle

For live sub-satellite position, see the globe view (requires WebGL).

§ Visibility from observer

Set your observer location to see the next 7 days of passes ≥ 10°. The values pass through the URL so the page stays shareable.

No JS? Fill the form by hand. The geolocation button needs JavaScript.